Weather History for KMSP - December, 2011

Change the Weather History Date:

Monday, December 5, 2011

  Actual Average Record
Temperature  
Mean Temperature 20 °F 23 °F  
Max Temperature 22 °F 30 °F 63 °F (2001)
Min Temperature 17 °F 16 °F -14 °F (1873)
Degree Days  
Heating Degree Days 45 42  
Month to date heating degree days 198 204  
Since 1 July heating degree days 1459 1823  
Cooling Degree Days 0 0  
Month to date cooling degree days 0 0  
Year to date cooling degree days 1061 753  
Moisture  
Dew Point 13 °F    
Average Humidity 74    
Maximum Humidity 77    
Minimum Humidity 71    
Precipitation  
Precipitation T in 0.04 in 0.81 in (1909)
Month to date precipitation 0.23 0.22  
Year to date precipitation 26.15 29.67  
Snow  
Snow T in 0.40 in 7.00 in (1909)
Month to date snowfall 4.8 2.0  
Since 1 July snowfall 7.8 11.9  
Snow Depth 3.00 in    
Sea Level Pressure  
Sea Level Pressure 30.48 in    
Wind  
Wind Speed 8 mph (NNW)    
Max Wind Speed 16 mph    
Max Gust Speed 20 mph    
Visibility 9 miles    
Events Snow    
T = Trace of Precipitation, MM = Missing Value Source: NWS Daily Summary

Daily Weather History Graph

Daily Weather History Graph

Search for Another Location

Airport or City:

Trip Planner

Search our weather history database for the weather conditions in past years. The results will help you decide how hot, cold, wet, or windy it might be!

Date:

Astronomy

Dec. 05, 2011 Rise Set
Actual Time 7:34 AM CST 4:32 PM CST
Civil Twilight 7:01 AM CST 5:05 PM CST
Nautical Twilight 6:24 AM CST 5:42 PM CST
Astronomical Twilight 5:49 AM CST 6:17 PM CST
Moon 1:37 PM CST (12/5) 2:48 AM CST (12/5)
Length of Visible Light 10h 04m
Length of Day
8h 57m
Waxing Gibbous, 80% of the Moon is Illuminated
Dec 5
Waxing Gibbous
Dec 10
Full
Dec 17
Last Quarter
Dec 24
New
Jan 1
First Quarter

Hourly Weather History & Observations

Time (CST) Temp. Windchill Dew Point Humidity Pressure Visibility Wind Dir Wind Speed Gust Speed Precip Events Conditions
12:53 AM 21.9 °F 14.5 °F 16.0 °F 78% 30.39 in 10.0 mi NW 5.8 mph - N/A   Overcast
1:53 AM 21.9 °F 15.7 °F 15.1 °F 75% 30.40 in 10.0 mi WNW 4.6 mph - N/A   Overcast
2:53 AM 21.9 °F 14.5 °F 15.1 °F 75% 30.41 in 10.0 mi NW 5.8 mph - N/A   Overcast
3:53 AM 19.4 °F 12.8 °F 14.0 °F 80% 30.37 in 10.0 mi WNW 4.6 mph - N/A   Overcast
4:53 AM 21.0 °F 16.2 °F 15.1 °F 78% 30.43 in 10.0 mi WNW 3.5 mph - N/A   Overcast
5:53 AM 21.0 °F 14.6 °F 14.0 °F 74% 30.44 in 10.0 mi WNW 4.6 mph - N/A   Overcast
6:53 AM 21.0 °F 12.4 °F 15.1 °F 78% 30.45 in 10.0 mi NW 6.9 mph - N/A   Overcast
7:53 AM 19.9 °F 10.1 °F 12.9 °F 74% 30.46 in 10.0 mi NNW 8.1 mph - N/A   Overcast
8:53 AM 19.9 °F 7.9 °F 12.9 °F 74% 30.50 in 10.0 mi NNW 11.5 mph - N/A   Overcast
9:53 AM 19.4 °F 6.6 °F 10.4 °F 68% 30.46 in 10.0 mi North 12.7 mph - N/A Snow Light Snow
10:53 AM 19.0 °F 6.1 °F 12.0 °F 74% 30.52 in 10.0 mi NNW 12.7 mph - 0.00 in   Mostly Cloudy
11:53 AM 19.9 °F 8.6 °F 12.0 °F 71% 30.52 in 10.0 mi NNW 10.4 mph - N/A   Overcast
12:53 PM 19.9 °F 7.9 °F 12.9 °F 74% 30.51 in 9.0 mi NW 11.5 mph - 0.00 in Snow Light Snow
1:53 PM 19.9 °F 8.6 °F 12.9 °F 74% 30.49 in 9.0 mi NNW 10.4 mph - 0.00 in Snow Light Snow
2:53 PM 19.9 °F 7.9 °F 12.0 °F 71% 30.50 in 10.0 mi North 11.5 mph - 0.00 in   Overcast
3:53 PM 19.9 °F 10.1 °F 12.9 °F 74% 30.50 in 9.0 mi North 8.1 mph - 0.00 in Snow Light Snow
4:53 PM 19.9 °F 9.3 °F 12.9 °F 74% 30.52 in 8.0 mi North 9.2 mph - 0.00 in Snow Light Snow
5:53 PM 19.9 °F 9.3 °F 12.9 °F 74% 30.53 in 8.0 mi North 9.2 mph - 0.00 in Snow Light Snow
6:53 PM 19.0 °F 8.2 °F 12.9 °F 77% 30.52 in 7.0 mi North 9.2 mph - 0.00 in Snow Light Snow
7:53 PM 19.0 °F 9.0 °F 12.9 °F 77% 30.52 in 9.0 mi North 8.1 mph - 0.00 in Snow Light Snow
8:53 PM 19.4 °F 9.5 °F 12.2 °F 74% 30.47 in 9.0 mi North 8.1 mph - N/A Snow Light Snow
9:53 PM 18.0 °F 7.7 °F 10.9 °F 74% 30.53 in 6.0 mi North 8.1 mph - 0.00 in Snow Light Snow
10:53 PM 18.0 °F 8.7 °F 10.9 °F 74% 30.52 in 9.0 mi North 6.9 mph - 0.00 in Snow Light Snow
11:53 PM 17.1 °F 6.6 °F 10.0 °F 74% 30.52 in 9.0 mi North 8.1 mph - 0.00 in Snow Light Snow